Location: Seattle
(47.6064°N, 122.3308°W)
Time: 03:22:47
(UTC-07:00)

ITUPSAT 1 - Pass Details

Date: 11 April 2023
Orbit: 697 x 710 km, 98.5° (Epoch: 29 May)

Event Time Altitude Azimuth Distance (km) Brightness Sun altitude
Rises 00:21:55 0° 356° (N) 3,117 ? -33.1°
Reaches altitude 10° 00:26:08 10° 320° (NW) 2,188 ? -33.3°
Maximum altitude 00:27:13 11° 307° (NW) 2,136 ? -33.3°
Drops below altitude 10° 00:28:18 10° 294° (WNW) 2,183 ? -33.4°
Enters shadow 00:30:02 - 275° (W) 2,448 ? -33.4°
